Probability
0 0 0 0 0 0 0 0 0 0 0 0 0 0 0 0 0 0 0 0 0 0 0 0 0 0 0 2 12 34 60 76 81 78 62 40 21 9 5 5 4 3 1 0
0 0 0 0 0 0 0 0 0 0 0 0 0 0 0 0 0 0 0 0 0 0 0 0 0 0 1 3 13 28 42 49 52 54 50 38 27 18 13 17 18 13 5 2
0 0 0 0 0 0 0 0 0 0 0 0 0 0 0 0 0 0 0 0 0 0 0 0 1 1 1 3 11 21 25 23 25 34 39 36 31 24 21 28 35 24 11 8
0 0 0 0 0 0 0 0 0 0 0 0 0 0 0 0 0 0 0 0 0 0 0 0 1 1 1 3 11 19 21 19 23 31 32 28 24 20 16 23 28 21 12 11
0 0 0 0 0 0 0 0 0 0 0 0 0 0 0 0 0 0 0 0 0 0 0 0 0 1 1 4 11 17 19 22 26 27 22 16 12 11 9 9 11 9 7 7
0 0 0 0 0 0 0 0 0 0 0 0 0 0 0 0 0 0 0 0 0 0 0 0 0 1 2 4 6 8 11 17 20 17 11 6 5 6 4 3 3 3 3 3
0 0 0 0 0 0 0 0 0 0 0 0 0 0 0 0 0 0 0 0 0 0 0 0 0 1 2 2 2 2 6 11 13 9 4 3 3 2 1 1 1 1 1 1
0 0 0 0 0 0 0 0 0 0 0 0 0 0 0 0 0 0 0 0 0 0 0 0 0 0 1 1 1 2 5 11 12 7 2 1 1 0 0 0 0 0 0 0
0 0 0 0 0 0 0 0 0 0 0 0 0 0 0 0 0 0 0 0 0 0 0 0 0 0 1 1 2 4 10 18 19 10 2 0 0 0 0 0 0 0 0 0
0 0 0 0 0 0 0 0 0 0 0 0 0 0 0 0 0 0 0 0 0 0 0 0 0 0 1 4 9 16 24 32 30 16 3 0 0 0 0 0 0 0 0 0
0 0 0 0 0 0 0 0 0 0 0 0 0 0 0 0 0 0 0 0 0 0 0 0 0 1 4 13 26 36 43 47 42 23 5 0 0 0 0 0 0 0 0 0
0 0 0 0 0 0 0 0 0 0 0 0 0 0 0 0 0 0 0 0 0 0 0 0 0 1 6 23 42 51 54 58 51 30 9 0 0 0 0 0 0 0 0 0
0 0 0 0 0 0 0 0 0 0 0 0 0 0 0 0 0 0 0 0 0 0 0 0 0 0 5 23 49 59 58 60 56 37 13 2 0 0 0 0 0 0 0 0
0 0 0 0 0 0 0 0 0 0 0 0 0 0 0 0 0 0 0 0 0 0 0 0 0 0 2 18 48 65 59 52 49 36 17 6 3 1 0 0 0 0 0 0
0 0 0 0 0 0 0 0 0 0 0 0 0 0 0 0 0 0 0 0 0 0 0 0 0 0 1 15 47 68 59 43 35 29 26 26 23 17 10 5 1 0 0 0
0 0 0 0 0 0 0 0 0 0 0 0 0 0 0 0 0 0 0 0 0 0 0 0 1 1 2 16 47 67 59 42 34 34 44 57 57 50 38 22 9 4 1 0
0 0 0 0 0 0 0 0 0 0 0 0 0 0 0 0 0 0 0 0 0 0 0 0 1 3 8 23 46 60 56 48 45 51 65 78 83 80 69 50 32 20 12 7
0 0 0 0 0 0 0 0 0 0 0 0 0 0 0 0 0 0 0 0 0 0 0 0 1 4 11 22 34 39 38 39 43 51 63 75 83 87 84 71 56 45 35 29
0 0 0 0 0 0 0 0 0 0 0 0 0 0 0 0 0 0 0 0 0 0 0 0 0 2 5 9 12 13 14 17 22 27 36 49 60 67 69 63 56 52 47 42
0 0 0 0 0 0 0 0 0 0 0 0 0 0 0 0 0 0 0 0 0 0 0 0 0 0 0 0 0 0 1 2 4 6 10 18 24 30 33 33 33 33 30 27
0 0 0 0 0 0 0 0 0 0 0 0 0 0 0 0 0 0 0 0 0 0 0 0 0 0 0 0 0 0 0 0 0 0 1 2 4 5 6 8 9 9 8 7
0 0 0 0 0 0 0 0 0 0 0 0 0 0 0 0 0 0 0 0 0 0 0 0 0 0 0 0 0 0 0 0 0 0 0 0 0 0 0 0 0 0 0 1
0 0 0 0 0 0 0 0 0 0 0 0 0 0 0 0 0 0 0 0 0 0 0 0 0 0 0 0 0 0 0 0 0 0 0 0 0 0 0 0 0 0 0 0
0 0 0 0 0 0 0 0 0 0 0 0 0 0 0 0 0 0 0 0 0 0 0 0 0 0 0 0 0 0 0 0 0 0 0 0 0 0 0 0 0 0 0 0
0 0 0 0 0 0 0 0 0 0 0 0 0 0 0 0 0 0 0 0 0 0 0 0 0 0 0 0 0 0 0 0 0 0 0 0 0 0 0 0 0 0 0 0
0 0 0 0 0 0 0 0 0 0 0 0 0 0 0 0 0 0 0 0 0 0 0 0 0 0 0 0 0 0 0 0 0 0 0 0 0 0 0 0 0 0 0 0
Wind_Speed
1 3 4 3 4 6 7 9 10 8 6 8 11 12 12 10 8 10 11 12 12 9 6 6 5 4 5 6 7 7 8 8 7 6 6 6 6 6 7 7 10 11 11 11
4 4 4 4 5 7 8 11 12 9 5 8 12 14 13 13 12 11 11 11 12 9 9 9 7 6 5 5 6 7 9 9 8 6 6 5 5 5 6 6 8 11 12 11
6 2 1 5 7 8 10 10 9 9 11 10 11 15 13 12 11 10 10 9 10 11 12 11 8 6 6 5 6 6 8 9 9 9 6 5 4 4 5 7 7 9 11 11
6 4 7 11 11 9 9 4 7 10 11 9 7 11 10 10 12 12 10 9 9 10 11 10 8 7 7 7 7 7 8 9 9 9 8 9 6 6 7 6 7 9 12 12
3 3 5 9 9 9 6 1 4 8 10 13 12 12 10 7 10 10 7 6 8 10 12 11 8 7 7 7 7 7 8 8 9 9 8 8 7 5 4 5 6 7 9 11
6 5 7 7 6 5 5 4 1 4 8 12 11 10 8 5 4 6 5 3 7 10 12 10 8 7 7 7 6 6 7 8 8 8 8 8 7 6 6 6 6 5 5 7
4 4 3 4 5 7 7 4 3 5 7 7 2 6 6 4 6 8 9 4 5 10 11 10 9 8 8 7 6 7 7 7 8 8 8 8 7 7 7 6 6 6 5 5
7 3 2 1 6 6 10 11 8 5 5 3 5 7 2 3 4 5 4 1 6 9 10 9 8 8 8 8 8 8 7 7 7 7 7 7 7 4 4 5 5 5 5 5
6 5 2 4 7 9 7 9 7 10 9 8 7 6 5 1 1 2 4 3 4 7 8 8 7 7 8 9 9 9 9 8 7 7 6 6 5 5 5 5 5 5 5 4
7 10 6 4 5 3 6 5 6 8 8 11 9 9 7 4 2 2 3 3 1 2 5 6 7 7 8 9 10 10 9 9 8 7 6 4 5 5 4 4 6 5 5 5
6 9 7 5 4 6 5 8 9 8 7 8 6 2 1 2 4 4 5 5 5 5 4 4 5 8 9 9 10 11 11 10 9 8 7 6 5 5 5 5 5 6 6 6
4 7 9 7 3 3 5 7 9 9 10 6 5 5 2 1 0 2 4 6 7 7 7 6 6 7 9 11 12 12 12 12 10 9 8 7 5 5 5 5 6 7 7 7
7 6 8 4 3 2 3 6 8 8 7 7 7 6 0 3 5 5 6 9 10 10 9 8 8 8 9 10 11 12 12 11 11 10 9 8 7 7 6 6 6 7 8 8
7 6 6 7 8 7 9 10 12 10 7 8 9 11 11 12 14 15 14 14 13 13 11 10 9 8 8 9 11 11 11 11 10 10 9 9 8 7 7 7 6 7 8 8
7 8 9 10 11 11 13 13 13 13 12 10 12 15 16 16 18 18 18 17 14 13 12 10 9 7 6 8 10 10 9 9 9 9 9 8 8 7 8 7 8 8 8 8
7 8 12 13 11 13 15 12 10 7 5 7 11 12 15 20 19 17 16 14 12 12 11 9 8 6 4 6 8 8 7 7 7 7 8 7 7 8 8 9 9 9 9 10
7 10 12 12 12 13 4 8 8 8 12 10 11 15 21 20 16 11 9 10 10 9 8 6 5 4 2 4 6 7 6 5 5 6 7 7 8 8 9 10 10 10 10 10
9 11 8 8 8 4 6 7 8 7 12 14 14 17 19 20 10 10 11 10 8 7 5 6 7 8 8 8 8 8 6 5 3 4 5 6 7 8 9 9 10 10 10 10
7 7 5 5 5 6 7 12 18 6 9 19 20 21 23 24 2 13 17 13 10 8 8 9 9 10 11 11 10 10 9 7 5 2 1 2 3 5 7 9 10 9 9 9
3 5 5 5 5 1 11 25 26 8 4 21 22 22 23 22 13 13 16 11 9 9 8 8 9 11 11 11 10 10 9 8 7 6 6 5 5 3 2 5 6 6 7 8
11 7 6 7 4 4 15 26 17 4 10 19 20 20 20 16 13 15 12 6 7 7 7 6 8 9 9 9 9 10 9 8 7 6 7 7 7 6 5 2 1 3 4 6
10 9 8 7 6 6 15 17 11 10 16 19 19 19 19 18 16 13 7 3 4 5 5 5 7 8 7 7 8 9 9 7 6 6 7 7 7 7 5 4 4 4 4 5
7 8 6 5 4 4 5 7 10 13 19 20 21 20 19 19 17 13 6 1 2 3 4 5 6 7 7 6 7 8 7 5 5 6 6 6 6 6 5 4 5 5 4 3
6 8 6 6 3 8 7 5 10 13 18 22 21 19 18 18 17 13 6 3 3 3 3 3 4 4 5 5 4 5 4 4 5 5 6 5 6 6 6 4 3 4 3 3
6 7 8 8 10 11 8 13 14 16 20 21 20 18 17 17 16 13 6 4 4 4 4 3 3 2 2 2 3 3 3 3 4 4 4 5 5 6 5 5 5 4 4 4
3 6 7 7 11 12 16 15 15 17 19 20 20 19 17 15 15 13 7 4 5 5 5 4 4 4 3 2 3 2 1 2 3 3 4 3 3 4 4 3 4 8 7 6
Wind_Direction
77 266 257 294 290 288 297 285 277 278 294 290 278 276 271 264 247 251 248 238 225 219 189 180 177 185 200 205 204 190 186 172 167 174 186 184 196 209 219 214 205 203 207 202
192 234 257 275 278 265 264 267 268 273 276 289 284 279 272 262 260 260 264 252 222 202 189 176 168 157 168 173 179 181 182 176 176 182 191 198 194 207 215 219 210 205 203 197
244 235 177 226 234 249 259 267 283 297 307 278 284 274 258 253 250 250 252 253 223 198 196 179 172 159 154 162 170 179 183 179 181 180 183 184 183 194 197 212 209 205 198 189
266 267 249 249 250 252 263 308 324 317 306 286 282 287 276 275 269 256 249 237 220 197 195 179 173 163 157 156 165 174 179 182 183 183 191 197 206 211 211 205 202 204 200 193
278 269 255 249 250 234 240 75 352 319 300 284 267 269 274 269 268 269 272 250 222 197 190 178 168 152 141 142 154 165 169 175 179 194 206 222 231 230 221 213 209 206 201 200
270 255 266 274 272 223 166 143 197 250 260 260 258 264 279 273 294 313 321 283 206 187 181 170 154 152 148 146 152 162 169 168 177 193 207 219 221 215 210 209 205 204 207 214
279 223 214 255 247 192 195 203 243 225 221 243 216 253 270 329 334 322 320 317 180 174 173 170 169 172 167 167 169 170 169 166 175 189 201 211 213 218 220 217 211 205 205 214
296 281 112 305 273 236 216 223 231 251 248 219 192 238 249 18 322 334 353 77 163 172 180 182 186 186 181 183 184 182 176 168 172 195 200 203 200 216 229 222 213 204 206 207
299 291 336 320 298 269 235 226 247 264 268 270 249 243 267 223 355 27 48 96 168 190 197 203 204 203 196 194 192 190 184 177 181 196 196 203 206 211 215 217 207 201 204 203
300 292 294 311 251 221 284 277 227 242 259 257 250 243 245 225 50 43 52 51 48 239 236 227 217 217 212 205 197 192 189 184 185 191 192 199 210 200 209 207 195 195 193 185
298 284 284 279 296 314 278 244 251 258 274 276 280 246 28 54 59 58 54 37 16 4 343 294 239 220 214 208 200 194 188 187 185 187 187 195 198 200 202 203 192 190 185 177
308 293 286 293 2 327 291 306 285 265 257 252 271 272 54 264 313 47 22 11 356 347 336 316 283 241 216 208 204 200 194 185 184 183 183 197 194 197 211 201 192 188 187 190
315 287 295 261 162 38 356 351 331 314 284 248 241 253 45 283 279 282 295 318 319 312 311 305 285 262 234 214 207 202 198 187 179 179 183 193 198 202 212 209 193 195 195 195
305 288 289 304 329 322 308 306 305 295 276 273 267 292 304 304 302 297 295 300 301 297 297 296 286 266 241 219 207 202 198 190 181 182 188 199 208 206 211 209 204 205 205 201
332 310 318 309 305 299 294 285 277 274 272 284 309 311 314 321 313 299 291 289 290 288 287 291 292 285 246 215 203 198 195 191 187 192 200 208 216 213 214 208 209 211 210 212
313 296 303 300 308 311 299 298 284 265 289 316 323 323 338 322 308 294 283 282 284 285 289 299 304 303 259 204 189 180 180 182 192 207 218 217 222 219 220 218 215 214 210 215
295 294 300 299 315 304 306 24 19 75 58 17 353 336 329 326 327 327 310 298 299 305 314 325 343 18 66 141 149 150 153 159 192 222 231 224 221 221 223 221 217 214 213 212
283 291 281 286 301 280 82 50 14 96 55 22 1 350 344 331 335 38 10 345 338 353 15 48 66 71 76 86 96 102 114 131 173 229 239 231 224 220 221 219 216 213 210 205
260 290 286 278 273 265 90 18 345 306 58 16 359 354 352 339 360 49 26 15 23 36 54 65 73 79 77 79 89 95 93 89 82 54 327 281 249 230 216 216 218 211 204 202
295 274 290 292 283 327 17 341 322 273 53 7 355 352 353 353 5 5 1 10 36 46 53 67 76 77 75 74 78 80 77 70 59 41 29 23 21 359 287 236 221 207 206 209
340 344 347 332 303 51 10 336 338 48 358 340 345 346 348 351 338 323 333 5 35 45 47 62 75 75 74 77 78 74 66 55 41 31 33 33 33 34 30 30 131 181 194 198
348 356 8 1 347 358 354 345 354 338 323 328 336 338 338 337 336 337 338 8 38 52 57 69 83 83 78 78 80 75 65 52 43 39 37 36 35 40 50 65 88 119 139 147
1 1 339 335 318 291 275 277 300 320 317 320 324 326 329 332 338 335 320 310 61 63 76 82 94 94 88 76 68 69 63 44 40 43 39 34 42 51 56 81 103 109 118 131
343 352 336 328 350 333 303 285 309 312 308 311 313 316 323 328 332 331 301 223 169 131 105 111 132 120 98 78 59 50 49 27 27 38 32 28 33 48 61 72 93 99 94 101
334 336 331 316 332 329 325 330 326 317 313 312 312 312 319 324 329 330 299 230 190 163 150 165 198 174 122 80 33 16 359 346 11 34 38 39 47 49 54 70 52 35 57 32
5 340 327 314 325 315 310 319 320 316 315 313 309 307 312 319 326 330 308 238 198 179 169 181 201 222 229 256 309 325 282 282 330 22 36 36 46 64 66 73 86 55 50 53